Wind_Speed
97 108 113 122 132 135 133 132 125 127 102 90 74 54 46 46 44 36 40 40 44 53 53 55 52 50 54 69 66 65 69 71 71 72 76 80 84 87 89 89 91 87 86 86 84 77 77
93 103 113 118 125 130 129 129 130 124 127 114 100 86 71 63 53 41 36 31 31 38 40 43 47 44 49 55 60 65 67 71 73 73 76 82 86 90 88 90 90 89 87 86 86 78 76
87 94 106 112 120 125 132 127 123 119 119 120 121 114 94 76 68 63 49 33 21 17 17 26 33 40 40 45 43 49 51 60 64 68 71 78 78 76 81 82 84 87 87 85 85 76 75
81 88 96 106 113 118 126 129 124 117 111 110 111 110 108 102 91 80 69 54 45 39 32 24 16 10 4 5 13 17 25 35 40 49 51 54 61 64 69 73 76 78 78 80 79 74 73
77 83 89 95 102 108 116 120 122 120 114 106 100 99 96 94 92 87 83 77 72 65 58 49 40 34 28 26 25 21 20 26 36 40 42 33 40 51 48 49 56 62 66 67 71 72 73
69 77 84 89 93 100 105 110 114 117 114 106 106 97 89 87 83 80 77 73 67 62 58 53 49 47 43 39 34 29 24 19 21 23 25 28 26 33 39 39 41 42 46 50 56 60 64
63 69 75 82 85 91 96 100 104 108 110 107 98 95 93 82 74 71 69 66 62 58 53 48 44 38 34 31 32 35 41 45 46 37 24 22 22 22 24 24 31 33 33 37 43 44 49
61 63 66 73 77 82 87 90 95 97 100 101 100 97 87 83 79 77 62 54 48 43 39 36 33 32 32 33 35 39 43 48 52 48 37 26 19 18 16 13 20 23 19 27 29 34 40
58 59 59 64 70 73 79 83 84 89 92 93 95 93 90 92 90 86 83 78 72 64 49 43 41 38 36 37 40 42 44 47 51 53 47 32 25 19 17 14 12 14 12 10 17 26 33
52 56 56 59 61 65 70 74 76 79 83 87 87 89 90 88 86 85 88 89 91 76 67 65 65 56 48 45 45 44 45 47 50 53 52 45 31 23 22 18 16 14 9 6 6 14 21
49 50 52 53 55 59 63 66 71 71 76 80 83 84 85 85 87 89 86 85 87 89 91 78 68 65 64 63 55 49 49 47 49 51 52 50 42 28 22 23 23 17 16 12 11 9 6
45 41 49 52 50 52 56 62 64 67 70 72 76 79 82 82 82 83 86 86 85 86 87 86 86 79 70 66 66 62 58 52 50 48 51 51 49 40 29 23 24 24 22 20 18 16 8
45 40 42 49 48 51 48 52 59 60 63 67 70 72 74 76 78 79 81 82 83 83 85 87 87 85 80 77 72 68 65 62 53 53 49 50 49 48 40 31 24 22 21 18 15 12 10
42 41 38 42 44 47 46 44 51 54 56 58 63 65 68 69 73 74 76 77 80 82 83 84 86 86 86 84 78 74 67 67 63 57 54 50 49 46 46 43 35 29 24 17 14 9 7
36 37 32 38 43 43 45 42 45 49 52 54 57 60 63 66 67 70 71 73 75 77 79 80 82 85 86 87 88 82 78 71 65 63 59 52 50 47 45 40 41 38 32 22 17 12 7
35 37 30 33 36 41 42 42 42 46 48 51 55 55 57 60 61 65 66 67 70 74 76 78 80 82 84 86 86 88 83 78 71 65 61 57 51 48 45 43 39 35 32 31 26 19 14
33 37 34 32 36 38 36 41 41 43 43 47 49 51 54 55 55 60 61 65 65 69 73 76 77 79 82 83 84 85 85 81 77 71 64 58 53 50 43 42 42 39 33 29 27 28 26
33 37 33 34 35 36 35 40 44 43 41 43 47 48 48 51 53 55 57 60 62 65 68 71 72 73 75 78 80 83 82 81 76 73 68 62 53 49 46 41 38 36 37 33 27 27 29
35 38 37 32 37 37 37 39 42 44 44 43 51 50 46 49 50 53 53 57 57 60 65 66 67 66 69 70 71 76 79 80 77 70 69 68 62 54 50 44 42 38 34 32 30 28 22
41 40 39 39 38 37 35 40 43 43 46 47 49 47 48 49 51 51 50 56 55 56 63 61 62 65 66 66 65 69 73 75 75 72 67 69 70 65 54 47 42 38 38 33 31 28 27
46 46 46 42 43 44 39 44 44 45 47 48 49 50 49 52 48 50 51 53 59 61 61 61 60 61 62 65 64 67 71 72 69 70 70 71 70 70 68 54 46 39 36 35 32 29 27
49 49 51 49 43 44 44 49 45 52 52 52 52 55 54 53 52 52 55 56 59 59 59 64 59 59 61 62 60 64 68 68 65 69 70 69 71 71 70 67 57 46 36 32 32 32 31
54 54 52 55 52 43 46 51 51 54 53 55 57 57 54 55 55 57 57 56 61 61 62 61 60 60 60 62 60 61 64 65 64 67 69 67 68 69 74 68 63 59 44 36 31 30 30
60 60 57 54 57 56 57 54 58 59 58 59 61 63 60 61 63 61 61 62 63 64 65 65 63 63 60 60 60 59 59 63 65 69 65 70 73 72 74 75 63 58 57 44 34 30 26
67 64 63 63 61 56 57 59 58 61 63 66 69 68 65 67 65 66 67 68 69 67 68 66 67 64 63 61 59 64 66 63 63 66 67 69 70 73 75 78 70 57 54 48 38 30 29
74 71 66 63 66 64 68 70 67 67 70 72 73 73 72 69 67 69 71 71 71 71 70 71 72 71 68 64 64 65 63 65 62 64 66 69 69 73 74 80 67 56 52 50 44 37 27
80 79 78 77 75 77 78 78 77 75 75 78 78 79 77 73 75 73 74 74 74 74 74 76 77 79 75 72 66 63 63 65 64 65 69 70 70 72 72 77 64 56 55 50 46 42 37
85 83 82 82 81 82 83 83 85 86 84 84 85 86 86 80 77 79 79 80 81 81 79 80 83 83 79 75 71 66 61 66 68 67 68 70 71 72 74 74 62 55 53 49 44 43 39
92 93 91 90 89 92 90 89 91 92 92 91 92 93 92 90 84 83 87 87 80 87 86 85 85 83 81 79 74 73 72 67 66 65 72 72 78 76 70 70 60 55 52 51 41 37 38
Wind_Direction
22 20 24 24 25 28 31 32 41 44 50 56 59 64 74 92 94 112 135 149 172 187 197 203 215 219 223 223 227 236 240 243 244 248 250 251 252 255 257 258 261 263 262 260 260 258 256
25 23 25 26 27 29 29 34 34 41 48 51 56 60 69 71 72 83 101 126 160 183 197 205 218 228 227 231 235 236 241 245 247 250 256 257 258 261 262 266 266 264 262 260 258 255 254
23 26 26 28 28 29 31 34 36 37 41 46 52 56 62 65 72 74 79 89 114 154 177 206 226 236 238 241 255 256 261 259 265 268 273 272 270 265 265 263 262 260 258 256 251 250 250
22 27 29 28 32 31 32 33 35 37 41 42 45 49 53 60 65 66 69 79 80 86 95 106 103 112 317 348 311 296 285 281 272 263 266 271 265 266 267 264 260 255 251 249 247 247 246
21 25 29 30 31 33 34 35 37 37 39 40 43 45 48 51 53 57 63 67 68 70 69 71 75 75 68 58 48 34 6 332 317 309 290 274 268 270 269 265 265 262 259 254 253 243 245
20 22 27 32 30 34 36 37 36 40 41 42 41 40 43 44 47 49 53 57 62 63 65 64 61 58 55 50 47 42 28 359 323 331 305 304 292 273 274 275 266 260 257 255 253 249 247
24 22 23 29 33 31 35 37 39 40 42 43 45 45 46 46 44 43 45 49 47 49 51 54 54 53 49 46 40 34 28 24 17 6 353 331 315 300 294 285 271 272 258 249 244 244 240
21 25 24 24 30 33 33 36 37 38 40 43 46 47 47 48 49 47 48 49 47 48 50 48 49 44 41 35 32 29 27 26 23 18 11 354 344 333 331 308 280 281 265 250 247 239 235
18 20 23 25 26 29 33 33 35 37 37 40 40 44 43 44 47 45 45 43 41 42 41 38 32 27 24 20 20 21 21 22 25 25 19 14 3 359 0 357 324 309 301 273 244 239 238
15 18 22 23 25 26 28 32 33 33 36 36 37 38 40 41 41 41 40 42 41 41 35 36 35 32 27 21 18 16 14 17 20 24 28 23 19 16 24 33 34 24 15 356 281 260 251
10 12 17 22 23 24 25 26 29 32 32 32 33 34 34 36 37 38 37 37 37 36 35 34 34 30 27 26 22 20 18 15 15 17 26 32 27 25 25 30 38 49 53 41 17 355 292
5 10 10 15 23 20 22 24 23 26 29 28 30 30 30 30 33 33 33 33 33 31 31 29 30 29 28 25 22 22 20 18 15 16 19 28 36 32 30 32 42 44 57 71 71 61 45
360 6 5 8 14 18 20 21 22 23 24 25 25 26 28 28 29 29 30 29 29 29 28 27 28 26 27 24 23 21 20 20 17 15 17 20 28 37 38 35 30 32 47 51 59 61 61
355 356 357 4 7 10 15 15 17 19 19 23 21 22 23 25 25 26 25 26 26 25 25 24 24 24 23 23 20 20 21 18 19 18 15 16 17 24 37 40 38 37 35 39 50 45 31
343 350 349 357 0 4 9 10 10 14 15 17 17 17 19 20 20 22 22 22 23 23 22 22 21 20 21 20 20 18 17 17 19 16 17 16 13 15 18 33 40 40 38 34 35 37 27
342 344 347 345 344 355 3 9 6 7 9 12 11 12 11 14 15 17 19 19 17 19 19 19 18 17 16 17 18 17 14 14 15 18 16 16 14 13 10 12 19 33 42 45 41 38 39
334 341 339 344 329 339 355 351 357 0 1 4 5 6 6 8 10 13 15 15 15 15 15 15 15 14 12 11 11 14 15 12 10 12 16 16 13 13 10 9 5 5 16 26 39 42 42
320 331 336 322 331 332 339 343 347 350 352 355 355 357 360 1 3 5 8 10 11 10 10 12 10 11 11 10 9 8 10 13 10 8 8 12 16 13 14 8 5 2 357 1 10 18 20
312 321 327 325 317 321 328 333 338 340 341 342 345 348 351 353 356 357 0 2 3 4 5 7 8 7 9 9 9 7 7 8 10 10 5 4 6 13 11 11 7 360 357 355 350 354 3
303 309 318 319 318 321 323 322 327 332 333 333 337 339 340 343 347 352 351 354 355 358 359 3 7 6 4 6 7 6 5 5 6 8 9 7 1 360 6 6 6 4 358 351 347 343 339
296 303 306 312 309 315 311 311 317 321 324 325 326 330 332 334 339 341 343 345 347 347 350 356 357 0 1 3 3 1 1 0 2 4 3 2 5 1 355 3 2 3 1 356 345 339 340
288 293 298 304 299 302 299 309 310 310 315 318 321 324 325 327 330 331 335 337 338 344 342 345 349 351 353 355 356 356 355 355 357 356 358 359 358 358 358 351 353 355 353 1 351 345 334
285 289 290 298 293 297 293 295 298 301 305 308 312 315 317 319 320 324 327 327 331 332 335 340 343 344 344 345 348 350 351 351 350 350 352 353 356 355 354 352 347 343 354 350 357 349 339
282 286 290 289 290 292 294 291 294 301 302 302 305 310 311 312 316 318 320 321 322 325 328 332 335 338 340 340 340 341 346 345 346 346 346 347 348 349 348 346 348 339 337 347 348 345 346
279 282 285 290 286 287 281 288 290 292 295 297 300 303 306 309 312 311 315 316 317 319 323 324 327 332 335 334 335 335 334 337 339 340 342 342 340 342 342 343 341 338 335 337 342 346 342
278 279 278 281 283 282 284 286 289 288 290 294 296 298 301 304 305 306 308 310 313 315 317 317 319 322 323 329 328 328 330 329 331 335 334 336 335 333 336 338 337 334 330 332 335 336 336
274 276 277 278 277 279 281 285 288 287 286 289 291 293 296 299 302 304 305 306 308 309 311 314 315 314 316 317 322 325 325 324 325 327 329 331 332 329 331 333 332 331 325 326 325 327 329
272 274 276 278 278 279 281 283 283 284 285 287 290 291 292 295 298 300 302 306 305 305 307 309 311 310 310 312 314 317 320 320 318 322 323 324 326 327 324 326 328 326 320 322 326 326 322
270 271 273 276 277 278 279 280 281 281 282 285 289 289 289 291 292 297 301 301 302 303 304 307 310 309 309 307 309 313 312 315 313 317 317 321 320 321 318 317 321 319 319 315 317 320 318
Height
10717 10693 10666 10640 10616 10587 10559 10535 10511 10486 10466 10451 10447 10450 10452 10451 10458 10469 10479 10501 10523 10543 10558 10572 10583 10593 10601 10609 10616 10620 10621 10622 10623 10623 10622 10619 10616 10613 10611 10610 10607 10612 10613 10617 10621 10628 10631
10725 10702 10678 10654 10630 10607 10584 10559 10541 10519 10505 10488 10479 10481 10479 10485 10493 10503 10514 10528 10541 10554 10570 10583 10589 10597 10606 10612 10616 10618 10619 10617 10616 10614 10611 10605 10601 10598 10596 10594 10592 10590 10591 10595 10600 10606 10615
10732 10713 10692 10669 10647 10627 10605 10584 10567 10549 10537 10526 10518 10515 10515 10520 10521 10527 10537 10551 10562 10572 10581 10589 10595 10600 10606 10612 10616 10617 10618 10617 10614 10609 10600 10592 10586 10578 10574 10573 10569 10568 10569 10572 10574 10587 10594
10740 10723 10706 10687 10667 10646 10625 10606 10592 10577 10565 10557 10550 10548 10549 10548 10550 10557 10564 10572 10578 10584 10590 10598 10604 10608 10613 10615 10616 10617 10617 10612 10604 10591 10582 10573 10566 10558 10551 10549 10547 10544 10547 10551 10561 10568 10577
10749 10733 10717 10701 10686 10670 10650 10634 10618 10601 10588 10581 10578 10575 10574 10576 10576 10578 10581 10588 10592 10595 10600 10605 10608 10614 10617 10617 10616 10614 10611 10603 10589 10576 10568 10557 10551 10543 10537 10533 10530 10530 10531 10538 10544 10552 10558
10755 10742 10728 10714 10700 10687 10673 10659 10644 10631 10619 10611 10605 10596 10594 10595 10596 10596 10597 10597 10600 10605 10608 10611 10613 10613 10614 10614 10615 10615 10611 10600 10587 10572 10558 10547 10539 10532 10525 10520 10516 10516 10516 10523 10528 10535 10545
10763 10750 10737 10725 10713 10702 10690 10680 10670 10659 10648 10638 10633 10627 10621 10619 10618 10616 10612 10611 10615 10616 10617 10618 10621 10623 10625 10623 10619 10612 10603 10590 10577 10561 10550 10541 10532 10524 10518 10513 10509 10507 10509 10512 10516 10522 10534
10767 10758 10746 10735 10725 10714 10706 10696 10687 10680 10673 10664 10657 10654 10651 10649 10647 10644 10641 10637 10638 10636 10634 10634 10632 10629 10625 10619 10613 10605 10596 10586 10575 10562 10549 10537 10527 10520 10513 10508 10505 10502 10503 10506 10511 10517 10522
10771 10763 10754 10744 10735 10725 10717 10710 10703 10695 10688 10683 10678 10673 10669 10665 10660 10659 10655 10651 10648 10644 10641 10637 10633 10629 10623 10618 10610 10602 10594 10585 10574 10563 10551 10538 10528 10520 10514 10508 10504 10500 10501 10503 10507 10512 10517
10775 10767 10760 10752 10743 10736 10727 10721 10715 10709 10702 10695 10690 10685 10680 10675 10670 10667 10662 10657 10652 10648 10647 10641 10635 10628 10622 10615 10608 10603 10596 10586 10575 10566 10553 10540 10530 10522 10517 10511 10506 10503 10502 10505 10508 10513 10518
10777 10771 10765 10758 10751 10744 10737 10728 10723 10717 10712 10705 10700 10694 10690 10685 10680 10676 10671 10665 10661 10655 10652 10644 10639 10633 10626 10618 10610 10602 10595 10587 10579 10570 10559 10547 10536 10528 10523 10518 10515 10511 10509 10511 10514 10518 10522
10779 10774 10769 10764 10758 10751 10744 10738 10730 10723 10718 10713 10707 10702 10697 10691 10686 10681 10676 10672 10667 10662 10658 10650 10642 10635 10629 10623 10615 10605 10593 10586 10580 10573 10563 10555 10543 10535 10529 10525 10521 10520 10518 10517 10519 10523 10527
10781 10776 10771 10767 10762 10756 10751 10745 10739 10733 10725 10719 10714 10709 10703 10699 10693 10687 10682 10678 10673 10669 10663 10656 10650 10642 10635 10626 10620 10612 10602 10592 10584 10575 10567 10561 10554 10544 10537 10532 10527 10524 10523 10524 10524 10525 10527
10782 10778 10773 10769 10764 10760 10754 10749 10743 10739 10733 10727 10721 10717 10711 10705 10700 10694 10688 10684 10678 10671 10666 10660 10654 10648 10640 10631 10623 10615 10609 10600 10588 10579 10572 10565 10560 10555 10548 10540 10535 10531 10529 10527 10526 10528 10529
10781 10777 10774 10771 10766 10762 10757 10752 10747 10742 10737 10732 10727 10722 10716 10710 10704 10698 10693 10688 10683 10677 10670 10663 10658 10651 10645 10638 10629 10620 10612 10605 10597 10586 10577 10570 10565 10560 10555 10552 10546 10541 10536 10535 10533 10532 10531
10781 10777 10774 10770 10766 10763 10758 10754 10750 10745 10741 10736 10730 10725 10720 10714 10708 10703 10697 10691 10685 10680 10675 10668 10661 10656 10650 10644 10637 10627 10617 10609 10602 10596 10586 10578 10571 10565 10561 10556 10554 10551 10549 10545 10540 10536 10534
10777 10774 10771 10769 10764 10761 10758 10754 10750 10746 10742 10737 10732 10728 10723 10718 10713 10707 10702 10695 10690 10684 10679 10673 10667 10659 10653 10646 10640 10635 10625 10614 10607 10601 10596 10589 10579 10573 10567 10563 10558 10555 10552 10549 10546 10543 10539
10771 10769 10767 10765 10762 10759 10756 10754 10750 10746 10742 10738 10735 10729 10725 10720 10716 10710 10704 10699 10693 10687 10681 10676 10670 10665 10657 10651 10645 10638 10632 10625 10614 10606 10600 10594 10590 10582 10574 10569 10565 10562 10557 10553 10548 10545 10540
10766 10763 10762 10760 10758 10755 10752 10749 10747 10744 10741 10737 10733 10729 10725 10721 10717 10711 10707 10702 10696 10690 10685 10678 10673 10668 10662 10654 10648 10642 10636 10629 10622 10614 10604 10598 10594 10588 10580 10575 10569 10565 10561 10557 10554 10549 10545
10759 10757 10755 10753 10751 10747 10747 10744 10741 10739 10737 10735 10731 10727 10724 10720 10715 10711 10706 10702 10696 10692 10687 10680 10675 10670 10664 10659 10653 10646 10639 10633 10626 10619 10612 10603 10596 10591 10589 10582 10574 10568 10563 10559 10555 10551 10548
10749 10748 10747 10746 10744 10741 10738 10737 10735 10732 10731 10728 10726 10723 10719 10717 10712 10709 10705 10700 10696 10690 10686 10683 10676 10671 10665 10660 10654 10649 10642 10635 10629 10622 10615 10609 10602 10593 10586 10585 10579 10571 10566 10560 10556 10551 10548
10739 10738 10737 10737 10736 10734 10731 10727 10726 10724 10721 10721 10719 10717 10714 10711 10708 10705 10702 10697 10694 10690 10685 10679 10677 10671 10666 10660 10655 10650 10644 10638 10631 10623 10619 10611 10604 10598 10590 10582 10579 10574 10566 10561 10556 10551 10546
10729 10727 10727 10726 10725 10724 10722 10720 10718 10715 10714 10712 10711 10710 10706 10703 10701 10699 10696 10693 10689 10685 10681 10677 10673 10668 10663 10659 10653 10647 10642 10638 10632 10626 10619 10613 10606 10600 10594 10588 10578 10569 10569 10562 10555 10550 10545
10717 10717 10716 10715 10713 10713 10710 10708 10706 10703 10702 10701 10700 10700 10698 10694 10691 10689 10686 10683 10680 10677 10674 10670 10668 10665 10661 10656 10651 10646 10641 10634 10630 10624 10619 10611 10606 10599 10593 10588 10583 10571 10562 10561 10555 10548 10544
10703 10704 10702 10702 10701 10699 10698 10695 10694 10692 10690 10689 10688 10688 10687 10684 10681 10676 10676 10673 10669 10668 10665 10661 10659 10657 10654 10652 10649 10643 10636 10631 10625 10621 10616 10609 10602 10599 10591 10582 10577 10572 10563 10556 10550 10546 10541
10687 10687 10689 10688 10687 10685 10685 10684 10681 10680 10678 10676 10674 10673 10675 10675 10670 10666 10664 10662 10658 10656 10655 10651 10650 10647 10645 10645 10641 10638 10632 10626 10622 10615 10609 10607 10600 10591 10589 10584 10577 10570 10562 10553 10547 10540 10536
10668 10669 10669 10672 10672 10670 10668 10667 10665 10663 10661 10660 10658 10657 10659 10661 10657 10655 10651 10649 10645 10643 10642 10640 10635 10633 10633 10633 10631 10629 10627 10618 10614 10609 10603 10599 10595 10587 10582 10579 10572 10567 10556 10551 10543 10539 10532
10649 10649 10648 10649 10651 10651 10649 10648 10647 10645 10643 10642 10641 10637 10639 10645 10645 10641 10637 10636 10632 10627 10627 10629 10625 10618 10617 10616 10617 10617 10617 10611 10604 10600 10595 10590 10586 10583 10576 10569 10566 10560 10551 10547 10539 10534 10528
10626 10628 10628 10627 10627 10627 10627 10626 10624 10622 10621 10619 10622 10616 10615 10621 10630 10625 10622 10615 10617 10613 10609 10610 10609 10605 10603 10599 10599 10601 10602 10601 10594 10590 10580 10580 10574 10573 10567 10558 10557 10553 10546 10539 10534 10528 10523